When you browse on this site, cookies collect data to enhance your experience and personalize the content and advertising you see.
Visit our Privacy Policy to learn more. By continuing to use the site, you agree to this use of cookies and data.
  • In Deutschland
  • Länderverzeichnis
  • Für 7 Tage
  • Wassertemperatur
  • Wetterkarte
  • Widgets
  • user-avatar
    Anmelden

    Stündliche Wetter Dresden

    Heute, 20 August, Dienstag

    Zeit Temperatur Niederschläge Wind Luftdruck Luftfeuchtigkeit
    00:00 +17°C° 0 mm 0 m/S 753 mmHg 68%
    01:00 +17°C° 0 mm 0 m/S 753 mmHg 68%
    02:00 +17°C° 0 mm 0 m/S 753 mmHg 68%
    03:00 +16°C° 0 mm 0 m/S 753 mmHg 68%
    04:00 +16°C° 0 mm 0 m/S 753 mmHg 68%
    05:00 +17°C° 0 mm 0 m/S 753 mmHg 68%
    06:00 +17°C° 0 mm 0 m/S 753 mmHg 67%
    07:00 +18°C° 0 mm 0 m/S 753 mmHg 66%
    08:00 +19°C° 0 mm 0 m/S 753 mmHg 65%
    09:00 +20°C° 0 mm 0 m/S 753 mmHg 64%
    10:00 +20°C° 0 mm 0 m/S 753 mmHg 63%
    11:00 +23°C° 0 mm 1 m/S 753 mmHg 61%
    12:00 +23°C° 0 mm 1 m/S 753 mmHg 60%
    13:00 +23°C° 0 mm 1 m/S 753 mmHg 59%
    14:00 +23°C° 0.1 mm 1 m/S 754 mmHg 62%
    15:00 +22°C° 0.1 mm 1 m/S 754 mmHg 65%
    16:00 +22°C° 0.1 mm 1 m/S 754 mmHg 68%
    17:00 +21°C° 0.5 mm 1 m/S 754 mmHg 75%
    18:00 +19°C° 0.5 mm 1 m/S 754 mmHg 82%
    19:00 +17°C° 0.5 mm 2 m/S 754 mmHg 89%
    20:00 +18°C° 0.5 mm 1 m/S 755 mmHg 90%
    21:00 +18°C° 0.5 mm 1 m/S 755 mmHg 91%
    22:00 +16°C° 0.5 mm 1 m/S 755 mmHg 91%
    23:00 +16°C° 0.6 mm 1 m/S 756 mmHg 91%

    Morgen, 21 August, Mittwoch

    Zeit Temperatur Niederschläge Wind Luftdruck Luftfeuchtigkeit
    00:00 +16°C° 0.6 mm 1 m/S 756 mmHg 91%
    01:00 +16°C° 0.6 mm 1 m/S 756 mmHg 90%
    02:00 +16°C° 0.2 mm 1 m/S 756 mmHg 90%
    03:00 +16°C° 0.2 mm 1 m/S 756 mmHg 91%
    04:00 +16°C° 0.2 mm 2 m/S 757 mmHg 91%
    05:00 +16°C° 0.1 mm 2 m/S 757 mmHg 88%
    06:00 +16°C° 0.1 mm 2 m/S 757 mmHg 86%
    07:00 +17°C° 0.1 mm 2 m/S 758 mmHg 83%
    08:00 +18°C° 0.1 mm 2 m/S 758 mmHg 76%
    09:00 +19°C° 0.1 mm 2 m/S 758 mmHg 68%
    10:00 +21°C° 0.1 mm 2 m/S 758 mmHg 61%
    11:00 +23°C° 0 mm 2 m/S 758 mmHg 56%
    12:00 +23°C° 0 mm 2 m/S 758 mmHg 51%
    13:00 +24°C° 0 mm 2 m/S 758 mmHg 47%
    14:00 +24°C° 0 mm 1 m/S 758 mmHg 47%
    15:00 +24°C° 0 mm 1 m/S 757 mmHg 46%
    16:00 +24°C° 0 mm 1 m/S 757 mmHg 46%
    17:00 +23°C° 0 mm 1 m/S 757 mmHg 51%
    18:00 +21°C° 0 mm 1 m/S 757 mmHg 56%
    19:00 +20°C° 0 mm 1 m/S 757 mmHg 61%
    20:00 +19°C° 0 mm 1 m/S 758 mmHg 64%
    21:00 +18°C° 0 mm 1 m/S 758 mmHg 66%
    22:00 +18°C° 0 mm 1 m/S 758 mmHg 69%
    23:00 +16°C° 0 mm 1 m/S 758 mmHg 70%

    übermorgen, 22 August, Donnerstag

    Zeit Temperatur Niederschläge Wind Luftdruck Luftfeuchtigkeit
    00:00 +16°C° 0 mm 1 m/S 758 mmHg 71%
    01:00 +16°C° 0 mm 1 m/S 758 mmHg 72%
    02:00 +16°C° 0 mm 1 m/S 758 mmHg 75%
    03:00 +15°C° 0 mm 1 m/S 757 mmHg 77%
    04:00 +15°C° 0 mm 1 m/S 757 mmHg 80%
    05:00 +16°C° 0 mm 1 m/S 757 mmHg 78%
    06:00 +18°C° 0 mm 1 m/S 758 mmHg 75%
    07:00 +19°C° 0 mm 1 m/S 758 mmHg 73%
    08:00 +20°C° 0 mm 1 m/S 758 mmHg 67%
    09:00 +22°C° 0 mm 1 m/S 758 mmHg 60%
    10:00 +24°C° 0 mm 2 m/S 758 mmHg 54%
    11:00 +25°C° 0 mm 2 m/S 757 mmHg 51%
    12:00 +26°C° 0 mm 1 m/S 757 mmHg 47%
    13:00 +26°C° 0 mm 1 m/S 757 mmHg 44%
    14:00 +26°C° 0 mm 1 m/S 756 mmHg 44%
    15:00 +26°C° 0 mm 1 m/S 756 mmHg 44%
    16:00 +26°C° 0 mm 1 m/S 756 mmHg 44%
    17:00 +25°C° 0 mm 1 m/S 756 mmHg 51%
    18:00 +23°C° 0 mm 2 m/S 756 mmHg 58%
    19:00 +20°C° 0 mm 2 m/S 756 mmHg 66%
    20:00 +20°C° 0 mm 2 m/S 757 mmHg 69%
    21:00 +19°C° 0 mm 2 m/S 757 mmHg 72%
    22:00 +19°C° 0 mm 1 m/S 757 mmHg 76%
    23:00 +18°C° 0 mm 1 m/S 757 mmHg 77%

    23 August, Freitag

    Zeit Temperatur Niederschläge Wind Luftdruck Luftfeuchtigkeit
    00:00 +18°C° 0 mm 1 m/S 757 mmHg 79%
    01:00 +18°C° 0 mm 1 m/S 757 mmHg 80%
    02:00 +16°C° 0 mm 1 m/S 757 mmHg 81%
    03:00 +16°C° 0 mm 1 m/S 757 mmHg 82%
    04:00 +16°C° 0 mm 1 m/S 757 mmHg 83%
    05:00 +16°C° 0 mm 0 m/S 757 mmHg 80%
    06:00 +17°C° 0 mm 0 m/S 758 mmHg 76%
    07:00 +18°C° 0 mm 0 m/S 758 mmHg 73%
    08:00 +21°C° 0 mm 1 m/S 758 mmHg 66%
    09:00 +23°C° 0 mm 2 m/S 758 mmHg 59%
    10:00 +25°C° 0 mm 2 m/S 758 mmHg 52%
    11:00 +26°C° 0 mm 3 m/S 758 mmHg 50%
    12:00 +26°C° 0 mm 3 m/S 758 mmHg 47%
    13:00 +27°C° 0 mm 3 m/S 757 mmHg 45%
    14:00 +27°C° 0 mm 3 m/S 757 mmHg 46%
    15:00 +27°C° 0 mm 4 m/S 757 mmHg 47%
    16:00 +27°C° 0 mm 4 m/S 756 mmHg 49%
    17:00 +25°C° 0 mm 3 m/S 756 mmHg 55%
    18:00 +22°C° 0 mm 3 m/S 756 mmHg 62%
    19:00 +21°C° 0 mm 3 m/S 756 mmHg 69%
    20:00 +20°C° 0 mm 2 m/S 756 mmHg 71%
    21:00 +19°C° 0 mm 2 m/S 756 mmHg 74%
    22:00 +18°C° 0 mm 2 m/S 756 mmHg 76%
    23:00 +18°C° 0 mm 2 m/S 756 mmHg 77%

    24 August, Samstag

    Zeit Temperatur Niederschläge Wind Luftdruck Luftfeuchtigkeit
    00:00 +18°C° 0 mm 1 m/S 756 mmHg 78%
    01:00 +18°C° 0 mm 1 m/S 756 mmHg 79%
    02:00 +16°C° 0 mm 1 m/S 756 mmHg 81%
    03:00 +16°C° 0 mm 1 m/S 755 mmHg 83%
    04:00 +15°C° 0 mm 1 m/S 755 mmHg 84%
    05:00 +16°C° 0 mm 1 m/S 755 mmHg 81%
    06:00 +18°C° 0 mm 1 m/S 755 mmHg 79%
    07:00 +19°C° 0 mm 1 m/S 755 mmHg 76%
    08:00 +20°C° 0 mm 2 m/S 755 mmHg 69%
    09:00 +23°C° 0 mm 2 m/S 755 mmHg 62%
    10:00 +25°C° 0 mm 2 m/S 754 mmHg 56%
    11:00 +26°C° 0 mm 3 m/S 754 mmHg 53%
    12:00 +27°C° 0 mm 3 m/S 754 mmHg 50%
    13:00 +29°C° 0 mm 3 m/S 753 mmHg 48%
    14:00 +29°C° 0 mm 3 m/S 753 mmHg 49%
    15:00 +29°C° 0 mm 3 m/S 752 mmHg 51%
    16:00 +29°C° 0 mm 3 m/S 752 mmHg 52%
    17:00 +28°C° 0 mm 3 m/S 752 mmHg 59%
    18:00 +26°C° 0 mm 3 m/S 751 mmHg 67%
    19:00 +24°C° 0 mm 2 m/S 751 mmHg 74%
    20:00 +24°C° 0 mm 2 m/S 751 mmHg 78%
    21:00 +23°C° 0 mm 2 m/S 751 mmHg 81%
    22:00 +21°C° 0 mm 2 m/S 751 mmHg 85%
    23:00 +21°C° 0 mm 2 m/S 751 mmHg 86%

    25 August, Sonntag

    Zeit Temperatur Niederschläge Wind Luftdruck Luftfeuchtigkeit
    00:00 +21°C° 0 mm 2 m/S 751 mmHg 87%
    01:00 +20°C° 0 mm 2 m/S 751 mmHg 88%
    02:00 +20°C° 0 mm 2 m/S 751 mmHg 88%
    03:00 +20°C° 0 mm 2 m/S 751 mmHg 89%
    04:00 +20°C° 0 mm 2 m/S 750 mmHg 89%
    05:00 +20°C° 0 mm 2 m/S 750 mmHg 86%
    06:00 +21°C° 0 mm 2 m/S 750 mmHg 82%
    07:00 +23°C° 0 mm 2 m/S 750 mmHg 79%
    08:00 +25°C° 0 mm 1 m/S 750 mmHg 72%
    09:00 +27°C° 0 mm 1 m/S 750 mmHg 66%
    10:00 +28°C° 0 mm 1 m/S 751 mmHg 60%
    11:00 +30°C° 0 mm 1 m/S 750 mmHg 55%
    12:00 +31°C° 0 mm 1 m/S 750 mmHg 51%
    13:00 +32°C° 0 mm 1 m/S 750 mmHg 46%
    14:00 +32°C° 0.3 mm 1 m/S 749 mmHg 48%
    15:00 +32°C° 0.3 mm 1 m/S 749 mmHg 49%
    16:00 +31°C° 0.3 mm 1 m/S 749 mmHg 50%
    17:00 +29°C° 1.2 mm 1 m/S 749 mmHg 58%
    18:00 +26°C° 1.2 mm 2 m/S 749 mmHg 67%
    19:00 +24°C° 1.2 mm 2 m/S 749 mmHg 76%
    20:00 +24°C° 0.3 mm 2 m/S 749 mmHg 76%
    21:00 +23°C° 0.3 mm 1 m/S 749 mmHg 77%
    22:00 +23°C° 0.3 mm 1 m/S 749 mmHg 77%
    23:00 +23°C° 0.2 mm 1 m/S 749 mmHg 77%
    Mehr zeigen